Printer-friendly version

IAU Minor Planet Center

Minor Planet Center

MPEC 2007-W34 : COMET P/2007 R2 (GIBBS)

The following Minor Planet Electronic Circular may be linked-to from your own Web pages, but must not otherwise be redistributed electronically.


Read MPEC 2007-W33 Read MPEC 2007-W35


M.P.E.C. 2007-W34                                Issued 2007 Nov. 19, 16:00 UT

     The Minor Planet Electronic Circulars contain information on unusual
         minor planets and routine data on comets.  They are published
   on behalf of Commission 20 of the International Astronomical Union by the
          Minor Planet Center, Smithsonian Astrophysical Observatory,
                          Cambridge, MA 02138, U.S.A.

             Prepared using the Tamkin Foundation Computer Network

                              MPC@CFA.HARVARD.EDU
          URL http://www.cfa.harvard.edu/iau/mpc.html  ISSN 1523-6714

                            COMET P/2007 R2 (GIBBS)

Observations:
    PK07R020  C2007 11 15.26123 03 20 10.74 +20 51 19.3          19.6 T EW034704
    PK07R020  C2007 11 15.27402 03 20 10.11 +20 51 17.3          20.2 T EW034704
    PK07R020  C2007 11 15.28677 03 20 09.50 +20 51 16.4          20.0 T EW034704
    PK07R020  C2007 11 15.29966 03 20 09.01 +20 51 14.2          20.2 T EW034704
    PK07R020  C2007 11 15.31236 03 20 08.29 +20 51 15.7          20.1 T EW034704
    PK07R020  C2007 11 16.97714 03 19 00.91 +20 48 09.8          19.7 N EW034147
    PK07R020  C2007 11 16.99055 03 19 00.25 +20 48 07.4                 EW034147
    PK07R020  C2007 11 17.12265 03 18 54.75 +20 47 57.6          17.6 N EW034J47
    PK07R020  C2007 11 17.12629 03 18 54.60 +20 47 57.0          18.3 N EW034J47
    PK07R020  C2007 11 17.13538 03 18 54.25 +20 47 56.0          17.8 N EW034J47

Observer details:
147 Osservatorio Astronomico di Suno.  Observers P. Concari, D. Crespi,
    S. Foglia, G. Galli, S. Minuto.  Measurer S. Foglia.  0.40-m f/4 reflector
    + CCD.
704 Lincoln Laboratory ETS, New Mexico.  Observers M. Bezpalko, D. Torres,
    R. Kracke, G. Spitz, J. Kistler.  Measurers J. Stuart, S. Scruggs.  1.0-m
    f/2.15 reflector + CCD.
J47 Observatorio Nazaret.  Observer G. Muler.  0.20-m Schmidt-Cassegrain + CCD.

Orbital elements:
    P/2007 R2 (Gibbs)
Epoch 2007 Aug. 8.0 TT = JDT 2454320.5
T 2007 Aug. 26.66870 TT                                 MPC
q   1.4658139            (2000.0)            P               Q
n   0.15456182     Peri.  353.04307     +0.99946393     -0.03251330
a   3.4387550      Node     8.82287     +0.03111422     +0.90683257
e   0.5737371      Incl.    1.43399     +0.01018592     +0.42023514
P   6.38
Residuals in seconds of arc
070910 703  1.2-  0.5-    070913 704  0.1-  1.0+    071013 J70 (3.0+  0.5+)
070910 703  1.0-  0.6+    070913 704 (0.2+  2.2-)   071013 J70 (4.1+  2.2+)
070910 703  0.7+  0.2-    070913 704  0.8-  0.2-    071013 157  1.4+  0.1+
070910 703  0.3-  0.2-    070913 704  1.1-  0.3-    071014 170  1.8+  0.4+
070910 703  0.6-  0.6+    070913 704  1.1-  1.0+    071014 170  1.8+  0.4+
070910 703 (3.0-  0.7-)   070915 G96  0.7+  0.4+    071015 691  0.9-  0.6-
070910 703  0.5-  0.9+    070915 G96  0.5+  0.3+    071015 691  0.4-  0.2+
070910 703  0.1-  0.6+    070915 G96  0.5+  0.5+    071015 691  1.2-  0.5-
070910 703  0.6-  0.2+    070915 G96  0.6+  0.1+    071016 246  0.8+  0.2+
070911 J95  0.1-  0.2-    070915 G96  1.0+  0.4+    071016 246  0.4+  0.1+
070911 J95  0.2+  0.1-    070915 G96  1.0+  0.2+    071016 246  0.4+  0.9+
070911 J95  0.1+  0.1-    070915 G96  0.8+  0.5+    071016 246  0.4+  0.1+
070911 J95  0.3-  0.2+    070915 G96  1.3+  0.2+    071016 246  0.3+  0.0
070911 673  0.7+  0.1-    070916 349  1.8-  0.8-    071018 585  0.5+  0.0
070911 673  0.6+  0.1-    070916 349  1.4-  0.3-    071018 585  1.4+  0.2+
070911 673  0.8+  0.1+    070917 355 (2.3-  0.3+)   071018 585  1.5+  1.8+
070911 673  0.4+  0.4+    070917 355  1.4-  0.5+    071019 699  0.1-  1.3-
070911 651  0.2-  0.1+    070917 355 (2.4-  0.1-)   071019 699  0.0   0.6-
070911 651  0.1+  0.2+    070918 585 (3.4-  1.5-)   071019 699  0.8-  0.0
070911 651  0.2-  0.5+    070918 J47  1.6-  0.2-    071019 699 (3.0-  0.3+)
070911 F65  0.3+  0.5+    070918 585  1.9+  2.0-    071024 G96  1.9+  0.0
070911 F65  1.5+  0.3+    070918 585  0.9-  1.5-    071024 G96  1.9+  0.1+
070911 F65  0.5+  0.6+    070918 585 (3.0-  2.0-)   071024 G96  1.1+  0.3-
070911 473  1.1-  0.5-    070918 J47  1.1-  0.1-    071024 G96  1.1+  0.3-
070911 473  0.6-  0.1-    070918 585 (0.7-  2.7-)   071030 213  0.4-  0.6-
070911 473  1.7-  0.4+    070918 J47  0.9-  0.1-    071030 213  0.3-  0.1+
070911 A13  0.4+  0.2+    070919 704  0.3-  0.7-    071030 213  0.0   0.1+
070912 A13  0.5+  0.2+    070919 704  0.8-  0.2+    071031 691  0.9-  0.1+
070912 151  1.5-  0.6-    070919 704 (2.8-  0.2+)   071031 G96  0.6-  0.5-
070912 151  1.8-  0.6-    070920 130  0.1+  0.2+    071031 G96  0.1+  0.7-
070912 151  1.4-  0.6-    070920 130  0.2-  0.1-    071031 691  0.4-  0.1-
070912 151  1.5-  0.6-    070920 130  0.3-  0.3+    071031 G96  0.1-  0.6-
070912 151  0.9-  0.2-    070920 130  0.5-  0.5+    071031 G96  0.1+  0.6-
070912 J95  0.4+  0.3-    070920 B42  1.7+  0.6+    071031 691  0.1+  0.3+
070912 J95  0.1-  0.0     070920 B42 (2.9+  1.0+)   071101 J47  1.0+  0.3-
070912 J95  0.7+  0.4+    070921 850  0.7+  0.2-    071101 J47  0.3+  0.4+
070912 J95  0.6+  0.2-    070921 850  0.2+  0.0     071105 215  1.6+  0.5+
070912 J95  0.7+  0.0     070926 G96  0.5+  0.1-    071105 215  1.3+  0.4+
070912 H55  0.3-  0.1+    070926 G96  0.7+  0.6-    071105 215  1.3+  0.4+
070912 H55  0.3-  0.1+    070926 G96  1.1+  0.1+    071108 691  0.1+  0.5-
070912 H55  0.2+  0.6-    070926 G96  1.3+  0.0     071108 691  1.2-  0.3-
070912 734  0.1+  0.1+    071006 213  1.2+  0.0     071108 691  1.0-  1.6+
070912 734  0.7+  0.5-    071006 213  0.1+  0.1-    071110 147  0.6+  0.3-
070912 734  0.4+  0.1+    071006 213  1.2+  0.4+    071110 147  0.4+  1.4-
070912 G96  0.0   0.0     071007 691  1.0-  0.2-    071115 704  0.2+  0.5+
070912 G96  1.2-  0.2-    071007 691  0.6-  0.1+    071115 704  0.4-  0.1-
070912 G96  0.8-  0.1-    071007 691  0.2-  0.1+    071115 704  0.8-  0.3+
070912 673  1.1+  0.7+    071007 349  0.5-  1.6+    071115 704  0.6+  0.5-
070912 G96  1.2-  0.3-    071007 349  1.0-  1.1+    071115 704 (1.3-  2.4+)
070912 673  0.6+  0.3+    071009 585  0.3+  0.7-    071116 147  0.3+  0.5-
070912 673  0.6+  0.2+    071009 585  0.4+  0.8-    071116 147  0.7-  1.3-
070912 673  1.2+  0.5+    071010 585  0.2+  1.0-    071117 J47  0.8+  0.7+
070912 215  0.8-  0.2-    071012 118  0.9+  0.1-    071117 J47  0.9+  0.5+
070913 204  0.8-  0.0     071012 118  1.6+  0.2-    071117 J47  1.6+  0.7+
070913 204  0.4+  0.5-    071013 J70 (0.3-  5.9+)

Brian G. Marsden             (C) Copyright 2007 MPC           M.P.E.C. 2007-W34

Read MPEC 2007-W33 Read MPEC 2007-W35


Our Web policy. Index to the CBAT/MPC/ICQ pages.


Valid HTML 4.01!